OK1UDZ-5 Weather Reports


time (UTC)temp
C
wind
direction
speed
KPH
gust
KPH
rain 1hr
cm
rain 24hr
cm
rain mn
cm
humidity
%
barometer
mb
20260504223021 -17 180 0.0 0.0 0.00 0.00 0.00 1010.7
20260504222219 -17 135 0.0 0.0 0.00 0.00 0.00 1010.7
20260504221417 -17 135 0.0 0.0 0.00 0.00 0.00 1010.8
20260504220611 -17 158 0.0 0.0 0.00 0.00 0.00 1010.9
20260504215809 -17 158 0.0 0.0 0.00 0.00 0.00 1011.0
20260504215006 -17 158 0.0 0.0 0.00 0.00 0.00 1011.0
20260504214204 -17 135 0.0 0.0 0.00 0.00 0.00 1011.1
20260504213354 -17 135 0.0 0.0 0.00 0.00 0.00 1011.1
20260504212547 -17 135 0.0 0.0 0.00 0.00 0.00 1011.1
20260504211741 -17 135 0.0 0.0 0.00 0.00 0.00 1011.2
20260504210933 -17 135 0.0 0.0 0.00 0.00 0.00 1011.2
20260504210120 -17 180 0.0 0.0 0.00 0.00 0.00 1011.3
20260504205319 -17 135 0.0 0.0 0.00 0.00 0.00 1011.2
20260504204516 -17 135 0.0 0.0 0.00 0.00 0.00 1011.3
20260504203710 -17 135 0.0 0.0 0.00 0.00 0.00 1011.2
20260504202905 -17 180 0.0 0.0 0.00 0.00 0.00 1011.2
20260504202055 -17 135 0.0 0.0 0.00 0.00 0.00 1011.2
20260504201249 -17 135 0.0 0.0 0.00 0.00 0.00 1011.1
20260504200438 -17 135 0.0 0.0 0.00 0.00 0.00 1011.1
20260504195630 -17 135 0.0 0.0 0.00 0.00 0.00 1011.1
20260504194827 -17 180 0.0 0.0 0.00 0.00 0.00 1011.1
20260504194018 -17 135 0.0 0.0 0.00 0.00 0.00 1011.2
20260504193215 -17 135 0.0 0.0 0.00 0.00 0.00 1011.2
20260504192403 -17 135 0.0 0.0 0.00 0.00 0.00 1011.2
20260504191553 -17 135 0.0 0.0 0.00 0.00 0.00 1011.2
20260504190748 -17 135 0.0 0.0 0.00 0.00 0.00 1011.4
20260504185935 -17 135 0.0 0.0 0.00 0.00 0.00 1011.6
20260504185127 -17 135 0.0 0.0 0.00 0.00 0.00 1011.6
20260504184321 -17 135 0.0 0.0 0.00 0.00 0.00 1011.5
20260504183514 -17 45 0.0 0.0 0.00 0.00 0.00 1011.3
20260504182708 -17 45 0.0 0.0 0.00 0.00 0.00 1011.0
20260504181854 -17 45 0.0 0.0 0.00 0.00 0.00 1010.8
20260504181045 -17 135 0.0 0.0 0.00 0.00 0.00 1010.7
20260504180240 -17 135 0.0 0.0 0.00 0.00 0.00 1010.4
20260504175434 -17 135 0.0 0.0 0.00 0.00 0.00 1010.2
20260504174623 -17 135 0.0 0.0 0.00 0.00 0.00 1010.0
20260504173814 -17 135 0.0 0.0 0.00 0.00 0.00 1009.9
20260504173006 -17 135 0.0 0.0 0.00 0.00 0.00 1009.9
20260504172202 -17 180 0.0 0.0 0.00 0.00 0.00 1009.9
20260504171354 -17 135 0.0 0.0 0.00 0.00 0.00 1009.8
20260504170550 -17 135 0.0 0.0 0.00 0.00 0.00 1009.8
20260504160132 -17 203 0.0 0.0 0.00 0.00 0.00 1009.8
20260504150507 -17 180 0.0 0.0 0.00 0.00 0.00 1008.9
20260504140831 -17 180 0.0 0.0 0.00 0.00 0.00 1009.3
20260504130422 -17 180 0.0 0.0 0.00 0.00 0.00 1010.1
20260504110407 -17 180 0.0 0.0 0.00 0.00 0.00 1011.3
20260504081558 -17 158 0.0 0.0 0.00 0.00 0.00 1013.0
20260504080758 -17 180 0.0 0.0 0.00 0.00 0.00 1012.7
20260504070353 -17 90 0.0 0.0 0.00 0.00 0.00 1013.1
20260504050328 -17 90 0.0 0.0 0.00 0.00 0.00 1013.6
20260504045529 -17 180 0.0 0.0 0.00 0.00 0.00 1013.5
20260504044729 -17 180 0.0 1.6 0.00 0.00 0.00 1013.4
20260504043926 -17 135 0.0 0.0 0.00 0.00 0.00 1013.6
20260504043125 -17 180 0.0 0.0 0.00 0.00 0.00 1013.6
20260504042325 -17 135 0.0 0.0 0.00 0.00 0.00 1013.5
20260504041523 -17 180 0.0 0.0 0.00 0.00 0.00 1013.5
20260504040724 -17 180 0.0 0.0 0.00 0.00 0.00 1013.4
20260504035924 -17 135 0.0 0.0 0.00 0.00 0.00 1013.5
20260504035124 -17 180 0.0 3.2 0.00 0.00 0.00 1013.5
20260504034324 -17 135 0.0 1.6 0.00 0.00 0.00 1013.6
20260504033524 -17 180 0.0 0.0 0.00 0.00 0.00 1013.5
20260504032720 -17 135 0.0 0.0 0.00 0.00 0.00 1013.4
20260504031920 -17 135 0.0 0.0 0.00 0.00 0.00 1013.4
20260504031118 -17 135 0.0 0.0 0.00 0.00 0.00 1013.3
20260504030319 -17 180 0.0 0.0 0.00 0.00 0.00 1013.4
20260504025518 -17 135 0.0 0.0 0.00 0.00 0.00 1013.2
20260504024717 -17 135 0.0 0.0 0.00 0.00 0.00 1013.3
20260504023918 -17 135 0.0 0.0 0.00 0.00 0.00 1013.3
20260504023119 -17 158 0.0 0.0 0.00 0.00 0.00 1013.3
20260504022319 -17 135 0.0 0.0 0.00 0.00 0.00 1013.4
20260504021520 -17 113 0.0 0.0 0.00 0.00 0.00 1013.3
20260504020719 -17 135 0.0 0.0 0.00 0.00 0.00 1013.4
20260504015917 -17 203 0.0 0.0 0.00 0.00 0.00 1013.4
20260504015117 -17 180 0.0 0.0 0.00 0.00 0.00 1013.6
20260504014314 -17 135 0.0 0.0 0.00 0.00 0.00 1013.5
20260504013514 -17 180 0.0 0.0 0.00 0.00 0.00 1013.5
20260504012715 -17 180 0.0 0.0 0.00 0.00 0.00 1013.5
20260504011915 -17 135 0.0 0.0 0.00 0.00 0.00 1013.4
20260504011112 -17 180 0.0 0.0 0.00 0.00 0.00 1013.4
20260504010312 -17 180 0.0 0.0 0.00 0.00 0.00 1013.5
20260504005511 -17 135 0.0 0.0 0.00 0.00 0.00 1013.5
20260504004711 -17 180 0.0 0.0 0.00 0.00 0.00 1013.5
20260504003911 -17 135 0.0 0.0 0.00 0.00 0.00 1013.6
20260504003111 -17 180 0.0 0.0 0.00 0.00 0.00 1013.7
20260504002312 -17 135 0.0 0.0 0.00 0.00 0.00 1013.6
20260504001511 -17 180 0.0 0.0 0.00 0.00 0.00 1013.6
20260504000711 -17 180 0.0 0.0 0.00 0.00 0.00 1013.7
20260503235908 -17 90 0.0 0.0 0.00 0.00 0.00 1013.7
20260503235053 -17 158 0.0 0.0 0.00 0.00 0.00 1013.7
20260503234248 -17 180 0.0 0.0 0.00 0.00 0.00 1013.8
20260503233439 -17 135 0.0 0.0 0.00 0.00 0.00 1013.8
20260503232630 -17 180 0.0 0.0 0.00 0.00 0.00 1013.8
20260503231820 -17 180 0.0 0.0 0.00 0.00 0.00 1013.8
20260503231014 -17 135 0.0 0.0 0.00 0.00 0.00 1013.8
20260503230210 -17 180 0.0 0.0 0.00 0.00 0.00 1013.9
20260503225403 -17 180 0.0 0.0 0.00 0.00 0.00 1013.9
20260503224557 -17 135 0.0 0.0 0.00 0.00 0.00 1013.9
20260503223749 -17 180 0.0 0.0 0.00 0.00 0.00 1013.9